Change the Weather History Date:

Thursday, August 21, 2014

  Actual Average Record
Temperature  
Mean Temperature 78 °F 74 °F  
Max Temperature 89 °F 85 °F 105 °F (1929)
Min Temperature 67 °F 62 °F 48 °F (1939)
Degree Days  
Heating Degree Days 0 0  
Month to date heating degree days 0 0  
Since 1 June heating degree days 14 26  
Since 1 July heating degree days 4 2  
Cooling Degree Days 13 9  
Month to date cooling degree days 206 209  
Year to date cooling degree days 847 836  
Since 1 June cooling degree days 728 771  
Growing Degree Days 28 (Base 50)    
Moisture  
Dew Point 68 °F    
Average Humidity 73    
Maximum Humidity 93    
Minimum Humidity 50    
Precipitation  
Precipitation 0.27 in 0.10 in 1.63 in (1997)
Month to date precipitation 3.46 2.23  
Year to date precipitation 19.79 19.88  
Snow  
Snow 0.00 in 0.00 in - ()
Month to date snowfall 0.0 0.0  
Since 1 June snowfall 0.0 0.0  
Since 1 July snowfall 0.0 0.0  
Snow Depth 0.00 in    
Sea Level Pressure  
Sea Level Pressure 29.80 in    
Wind  
Wind Speed 14 mph (SSE)    
Max Wind Speed 37 mph    
Max Gust Speed 48 mph    
Visibility 10 miles    
Events Rain , Thunderstorm    
T = Trace of Precipitation, MM = Missing Value Source: NWS Daily Summary

Daily Weather History Graph

Daily Weather History Graph

Search for Another Location

Airport or City:

Trip Planner

Search our weather history database for the weather conditions in past years. The results will help you decide how hot, cold, wet, or windy it might be!

Date:

Astronomy

Aug. 21, 2014 Rise Set
Actual Time 6:49 AM CDT 8:22 PM CDT
Civil Twilight 6:20 AM CDT 8:51 PM CDT
Nautical Twilight 5:45 AM CDT 9:26 PM CDT
Astronomical Twilight 5:07 AM CDT 10:03 PM CDT
Moon 3:19 AM CDT (8/21) 5:53 PM CDT (8/21)
Length of Visible Light 14h 31m
Length of Day
13h 33m
Waning Crescent, 13% of the Moon is Illuminated
Aug 21
Waning Crescent
Aug 25
New
Sep 2
First Quarter
Sep 8
Full
Sep 15
Last Quarter

Hourly Weather History & Observations

Time (CDT) Temp. Heat Index Dew Point Humidity Pressure Visibility Wind Dir Wind Speed Gust Speed Precip Events Conditions
12:53 AM 81.0 °F 83.8 °F 68.0 °F 65% 29.70 in 10.0 mi South 16.1 mph - N/A   Clear
1:53 AM 79.0 °F - 66.0 °F 64% 29.74 in 10.0 mi SW 19.6 mph 28.8 mph 0.00 in Rain Light Rain
2:17 AM 72.0 °F - 60.1 °F 66% 29.81 in 10.0 mi SW 31.1 mph 41.4 mph 0.00 in Rain , Thunderstorm Light Rain
2:38 AM 72.0 °F - 59.0 °F 64% 29.82 in 10.0 mi SSW 31.1 mph 44.9 mph 0.00 in Rain , Thunderstorm Light Thunderstorms and Rain
2:53 AM 71.1 °F - 62.1 °F 73% 29.74 in 8.0 mi South 13.8 mph - 0.01 in Rain , Thunderstorm Light Thunderstorms and Rain
3:01 AM 73.0 °F - 63.0 °F 71% 29.79 in 10.0 mi South 19.6 mph 24.2 mph 0.00 in Thunderstorm Overcast
3:22 AM 71.1 °F - 64.0 °F 78% 29.77 in 10.0 mi SSE 11.5 mph - 0.00 in   Mostly Cloudy
3:53 AM 73.9 °F - 62.1 °F 66% 29.78 in 10.0 mi NNW 26.5 mph 29.9 mph 0.00 in   Overcast
4:01 AM 73.9 °F - 63.0 °F 68% 29.85 in 10.0 mi NW 18.4 mph 29.9 mph 0.00 in Rain , Thunderstorm Light Rain
4:14 AM 69.1 °F - 64.0 °F 84% 29.86 in 6.0 mi NNW 13.8 mph 21.9 mph 0.02 in Rain , Thunderstorm Thunderstorms and Rain
4:33 AM 66.9 °F - 64.9 °F 93% 29.84 in 2.0 mi NE 8.1 mph - 0.22 in Rain , Thunderstorm Heavy Thunderstorms and Rain
4:43 AM 68.0 °F - 64.9 °F 90% 29.84 in 10.0 mi NNE 5.8 mph - 0.24 in Rain , Thunderstorm Light Thunderstorms and Rain
4:53 AM 68.0 °F - 66.0 °F 93% 29.78 in 10.0 mi East 5.8 mph - 0.24 in Thunderstorm Thunderstorm
5:01 AM 68.0 °F - 64.9 °F 90% 29.83 in 10.0 mi SE 8.1 mph - N/A Thunderstorm Mostly Cloudy
5:13 AM 68.0 °F - 64.9 °F 90% 29.83 in 10.0 mi ESE 9.2 mph - N/A   Mostly Cloudy
5:53 AM 69.1 °F - 66.0 °F 90% 29.75 in 10.0 mi ESE 9.2 mph - N/A   Clear
6:53 AM 70.0 °F - 66.9 °F 90% 29.75 in 10.0 mi SSE 10.4 mph - 0.00 in   Partly Cloudy
7:53 AM 72.0 °F - 66.9 °F 84% 29.77 in 10.0 mi South 10.4 mph - 0.01 in   Clear
8:53 AM 75.0 °F - 68.0 °F 79% 29.78 in 10.0 mi South 13.8 mph - N/A   Clear
9:53 AM 75.9 °F - 68.0 °F 76% 29.79 in 10.0 mi South 12.7 mph - N/A   Clear
10:53 AM 80.1 °F 82.9 °F 69.1 °F 69% 29.79 in 10.0 mi South 15.0 mph - N/A   Clear
11:53 AM 82.9 °F 87.0 °F 70.0 °F 65% 29.79 in 10.0 mi South 11.5 mph - N/A   Clear
12:53 PM 86.0 °F 90.7 °F 70.0 °F 59% 29.80 in 10.0 mi SSW 9.2 mph - N/A   Clear
1:53 PM 87.1 °F 92.0 °F 70.0 °F 57% 29.81 in 10.0 mi SSW 10.4 mph - N/A   Clear
2:53 PM 87.1 °F 92.0 °F 70.0 °F 57% 29.82 in 10.0 mi Variable 4.6 mph - N/A   Clear
3:53 PM 87.1 °F 92.8 °F 71.1 °F 59% 29.81 in 10.0 mi Variable 5.8 mph - N/A   Clear
4:53 PM 87.1 °F 93.6 °F 72.0 °F 61% 29.82 in 10.0 mi SSE 4.6 mph - N/A   Clear
5:53 PM 88.0 °F 92.1 °F 69.1 °F 53% 29.81 in 10.0 mi Calm Calm - N/A   Clear
6:53 PM 87.1 °F 92.8 °F 71.1 °F 59% 29.81 in 10.0 mi NE 3.5 mph - N/A   Clear
7:53 PM 82.9 °F 90.2 °F 75.0 °F 77% 29.82 in 10.0 mi NE 4.6 mph - N/A   Clear
8:53 PM 79.0 °F - 73.0 °F 82% 29.84 in 10.0 mi East 4.6 mph - N/A   Clear
9:44 PM 80.1 °F 83.8 °F 72.0 °F 76% 29.92 in 10.0 mi SE 6.9 mph - N/A Thunderstorm Thunderstorm
9:53 PM 79.0 °F - 72.0 °F 79% 29.87 in 9.0 mi SE 6.9 mph - 0.00 in Rain Light Rain
10:53 PM 75.0 °F - 72.0 °F 90% 29.85 in 10.0 mi SW 4.6 mph - 0.01 in   Clear
11:53 PM 75.9 °F - 70.0 °F 82% 29.87 in 10.0 mi South 6.9 mph - N/A   Clear